Showing default

LEMUR 2 THERMORAPTOR, 63354

Orbit data source: Space-Track

LEMUR 2 THERMORAPTOR, 63354 is a payload satellite owned by OroraTech (US) in SSO that was launched on Wed, 26 Mar 2025 UTC via an ELECTRON launch vehicle from the Rocket Lab Launch Complex (RLLC). Payload-class satellites include a variety of spacecraft equipped with specific instruments for various scientific and technological missions. These include communications satellites like Starlink; space stations such as the ISS; scientific satellites like the Hubble; Earth observation satellites from companies like Planet Labs, Umbra, and HawkEye 360; GPS; miniature CubeSats for education and research; and military/defense satellites.

Loading next visibility...
Identifier
63354, 2025-061D
Orbit
SSO
Country
Flag of USUS
Related business
Manufacturer
Spire/Glasgow
Mission
Operational Commercial Imaging
Bus & Motor
CUBESAT 8U, Unknown motor
Mass
~15 kg wet, ~15 kg dry
Launch date (UTC)
2025-03-26 (1 year ago)
Launch vehicle
ELECTRON
Launch site
Rocket Lab Launch Complex (RLLC)
Object type
Payload
Rocket body
Debris
Shape & HBR
Box + 2 Pan, 0.2 m
Radar Cross Section
0.070 m², Medium (>0.1 m² and < 1m²)

Expand to show TLE details & history
Last TLE update: 11 hours ago

TLE from 11 hours ago
0 LEMUR 2 THERMORAPTOR
1 63354U 25061D   26267.18703337  .00002876  00000-0  15851-3 0  9996
2 63354  97.5814 242.8021 0016942 274.9842  84.9456 15.14704792 82594
Epoch: 2026-09-24T04:29Z
TLE epoch observation values (Epoch: 2026-09-24T04:29:19.683Z)
Latitude
0.00003°
Longitude
172.44267°
Altitude
523.943 km
Speed
7.602 km/s
True Right ascension
16h 11m 12s
True Declination
0° 00' 00"
Sunlit
Object was in daylight at epoch
Visualization orbit readout
Latitude
Unknown
Longitude
Unknown
Altitude
Unknown
Speed
Unknown
Apparent Right ascension
Unknown
Apparent Declination
Unknown
Sunlit
N/A
Visualization observer readout
Local Sidereal Time
08:50:28
Azimuth
Unknown
Elevation
Unknown
Doppler factor
Unknown
Orbital elements
Apogee altitude
530.54 km
Perigee altitude
507.171 km
Semi-major axis
6,896.992 km
Eccentricity
0.00169
Inclination
97.5814°
RAAN
242.8021°
Arg. of periapsis
274.9842°
True anomaly
85.13902°
Mean anomaly
84.9456°
Eccentric anomaly
85.04231°
Mean motion
3.78925 °/min
Orbital period
95.01 mins
BSTAR
0.00015851
Loading maneuver chart data...
Computing Atmospheric mass density...
Loading historical data...
Loading historical data...
Loading historical data...
Loading historical data...
Loading historical data...
Loading historical data...
Loading historical data...

Documentation

Showing up to 5 results
|